Location: Marlborough
(51.4223°N, 1.7415°W)
Time: 06:45:47
(UTC+01:00)

Envisat - Pass Details

Date: 24 May 2024
Orbit: 762 x 764 km, 98.3° (Epoch: 13 June)

Event Time Altitude Azimuth Distance (km) Brightness Sun altitude
Rises 03:33:05 0° 23° (NNE) 3,240 8.1 -10.7°
Reaches altitude 10° 03:35:46 10° 35° (NE) 2,309 7.1 -10.4°
Maximum altitude 03:40:02 26° 92° (E) 1,462 4.9 -10.0°
Drops below altitude 10° 03:44:15 10° 149° (SSE) 2,294 5.3 -9.6°
Sets 03:46:53 0° 162° (SSE) 3,214 5.9 -9.4°
